Flag for Canada Weather past 2 weeks in East Hants, Nova Scotia, Canada

Now
14 °F

Overcast.


Feels Like: 0 °F
Forecast: 1 / 17 °F
Wind: 13 mph from North

Location: Halifax International Airport

Current Time: Mar 5, 2015 at 11:09:49 PM

Latest Report: Mar 5, 2015 at 10:00 PM


Visibility: 15 mi

Pressure: 30.04 "Hg

Humidity: 41%

Dew point: -6 °F

Location of East HantsLocation

Historic Weather in East Hants — Graph

°F

East Hants temperature yesterday

Maximum temperature yesterday: 39 °F (at 3:00 PM)
Minimum temperature yesterday: 10 °F (at 12:00 AM)
Average temperature yesterday: 30 °F

Past Weeks' High & Low Weather Summary

 TemperatureHumidityPressure
High41 °F (Feb 22, 8:00 AM)100% (Feb 19, 12:00 AM)30.64 "Hg (Feb 19, 12:00 AM)
Low-8 °F (Feb 24, 6:00 AM)36% (Feb 28, 4:00 PM)29.36 "Hg (Feb 19, 10:00 PM)
Average20 °F74%29.98 "Hg
* Reported Feb 18 10:00 PM — Mar 5 10:00 PM, East Hants, Weather by CustomWeather, © 2015

Note: Actual official high and low records may vary slightly from our data, if they occured in-between our weather recording intervals... More about our weather records

Advertising

East Hants weather history for previous 24 hours

 ConditionsComfort  
Time TempWeatherWind HumidityBarometerVisibility
10:00 PM
Thu, Mar 5
14 °FOvercast.13 mph41%30.04 "Hg15 mi
9:00 PM14 °FOvercast.17 mph44%30.01 "Hg15 mi
8:00 PM16 °FOvercast.17 mph48%29.98 "Hg15 mi
7:00 PM19 °FOvercast.16 mph49%29.94 "Hg15 mi
6:00 PM21 °FOvercast.15 mph54%29.92 "Hg15 mi
5:00 PM21 °FOvercast.17 mph58%29.89 "Hg15 mi
4:00 PM25 °FOvercast.22 mph50%29.85 "Hg15 mi
3:00 PM25 °FOvercast.20 mph42%29.83 "Hg15 mi
2:00 PM25 °FOvercast.21 mph39%29.82 "Hg15 mi
1:00 PM27 °FMore clouds than sun.23 mph43%29.83 "Hg15 mi
12:00 PM28 °FMostly cloudy.20 mph55%29.82 "Hg15 mi
11:00 AM28 °FMostly cloudy.20 mph64%29.81 "Hg15 mi
10:00 AM32 °FMostly cloudy.18 mph55%29.78 "Hg15 mi
9:00 AM32 °FOvercast.12 mph55%29.78 "Hg15 mi
8:00 AM30 °FMostly cloudy.9 mph64%29.75 "Hg15 mi
7:00 AM30 °FMostly cloudy.6 mph69%29.71 "Hg15 mi
6:00 AM32 °FOvercast.7 mph75%29.71 "Hg15 mi
5:00 AM32 °FOvercast.5 mph87%29.71 "Hg15 mi
4:00 AM32 °FOvercast.7 mph87%29.69 "Hg15 mi
3:00 AM32 °FOvercast.7 mph87%29.66 "Hg15 mi
2:00 AM32 °FOvercast.8 mph87%29.71 "Hg15 mi
1:00 AM32 °FOvercast.13 mph80%29.70 "Hg15 mi
12:00 AM32 °FOvercast.12 mph80%29.70 "Hg15 mi
11:00 PM
Wed, Mar 4
32 °FPassing clouds.15 mph80%29.70 "Hg15 mi
Weather by CustomWeather, © 2015

See weather overviewHow to use our weather pages